Location: Asheville, NC
(35.6000°N, 82.5500°W)
Time: 05:26:28
(UTC-04:00)

Vanguard 1 - All Passes

Search period start: 17 October 2017 00:00
Search period end: 27 October 2017 00:00
Orbit: 650 x 3834 km, 34.3° (Epoch: 15 October)

Date Brightness Start Highest point End Pass type
(mag) Time Alt. Az. Time Alt. Az. Time Alt. Az.
17 Oct - 00:06:11 10° SSW 00:16:10 33° SE 00:31:51 10° E visible
17 Oct - 02:24:03 10° WSW 02:38:31 71° SSE 03:01:29 10° E visible
17 Oct - 04:45:57 10° W 05:05:19 87° S 05:29:05 10° E visible
17 Oct - 07:10:30 10° WNW 07:33:14 72° SSW 07:53:34 10° SE visible
17 Oct - 09:38:05 10° WNW 09:57:57 38° SW 10:12:59 10° SSE daylight
18 Oct - 00:26:04 10° SSW 00:36:40 42° SE 00:54:17 10° ENE visible
18 Oct - 02:45:00 10° WSW 02:59:57 78° SSE 03:23:24 10° E visible
18 Oct - 05:07:21 10° W 05:27:14 85° S 05:50:45 10° ESE visible
18 Oct - 07:32:09 10° WNW 07:54:42 64° SSW 08:14:26 10° SE daylight
18 Oct - 10:00:51 10° W 10:18:32 29° SW 10:32:23 10° S daylight
18 Oct - 22:33:02 10° SSE 22:37:43 14° ESE 22:43:30 10° E night (unlit)
19 Oct - 00:46:18 10° SW 00:57:23 52° SE 01:16:27 10° ENE visible
19 Oct - 03:06:04 10° WSW 03:21:33 83° S 03:45:18 10° E visible
19 Oct - 05:28:47 10° W 05:49:05 82° SSW 06:12:19 10° ESE visible
19 Oct - 07:53:53 10° WNW 08:15:57 56° SW 08:35:03 10° SE daylight
19 Oct - 10:24:24 10° W 10:39:02 22° SW 10:51:00 10° S daylight
19 Oct - 22:50:58 10° S 22:57:53 21° SE 23:07:49 10° E night (unlit)
20 Oct - 01:06:48 10° SW 01:18:17 62° SSE 01:38:29 10° ENE visible
20 Oct - 03:27:14 10° W 03:43:16 86° S 04:07:14 10° E visible
20 Oct - 05:50:14 10° W 06:10:52 77° SSW 06:33:42 10° ESE visible
20 Oct - 08:15:46 10° WNW 08:37:02 47° SW 08:55:20 10° SSE daylight
20 Oct - 10:49:43 10° W 10:59:28 15° SW 11:08:00 10° SSW daylight
20 Oct - 23:10:12 10° S 23:18:09 29° SE 23:30:48 10° E night (unlit)
21 Oct - 01:27:31 10° WSW 01:39:26 71° SSE 02:00:28 10° E visible
21 Oct - 03:48:29 10° W 04:05:03 86° S 04:29:06 10° E visible
21 Oct - 06:11:41 10° WNW 06:32:31 71° SSW 06:54:53 10° SE visible
21 Oct - 08:37:56 10° W 08:57:56 39° SW 09:15:14 10° SSE daylight
21 Oct - 23:30:03 10° SSW 23:38:36 39° SE 23:53:13 10° ENE visible
22 Oct - 01:48:24 10° WSW 02:00:44 78° SSE 02:22:27 10° E visible
22 Oct - 04:09:46 10° W 04:26:51 85° S 04:50:55 10° ESE visible
22 Oct - 06:33:12 10° WNW 06:54:01 64° SSW 07:15:50 10° SE visible
22 Oct - 09:00:32 10° W 09:18:43 30° SW 09:34:37 10° S daylight
22 Oct - 21:40:09 10° ESE 21:40:18 10° ESE 21:40:26 10° ESE night (unlit)
22 Oct - 23:50:15 10° SW 23:59:14 49° SE 00:15:21 10° ENE visible
23 Oct - 02:09:24 10° WSW 02:22:13 83° S 02:44:26 10° E visible
23 Oct - 04:31:03 10° W 04:48:37 82° SSW 05:12:36 10° ESE visible
23 Oct - 06:54:48 10° WNW 07:15:22 55° SSW 07:36:28 10° SE visible
23 Oct - 09:23:56 10° W 09:39:24 23° SW 09:53:13 10° S daylight
23 Oct - 21:55:30 10° SSE 22:00:28 17° SE 22:07:13 10° E night (unlit)
24 Oct - 00:10:44 10° SW 00:20:04 59° SSE 00:37:22 10° ENE visible
24 Oct - 02:30:30 10° W 02:43:47 86° S 03:06:27 10° E visible
24 Oct - 04:52:21 10° W 05:10:20 76° SSW 05:34:06 10° ESE visible
24 Oct - 07:16:34 10° WNW 07:36:34 47° SW 07:56:47 10° SSE visible
24 Oct - 09:48:56 10° W 10:00:03 16° SW 10:10:19 10° SSW daylight
24 Oct - 22:14:32 10° S 22:20:45 25° SE 22:30:16 10° E night (unlit)
25 Oct - 00:31:26 10° WSW 00:41:05 69° SSE 00:59:20 10° E visible
25 Oct - 02:51:38 10° W 03:05:25 86° S 03:28:26 10° E visible
25 Oct - 05:13:41 10° W 05:31:57 70° SSW 05:55:22 10° SE visible
25 Oct - 07:38:36 10° W 07:57:39 38° SW 08:16:40 10° SSE daylight
25 Oct - 22:34:19 10° SSW 22:41:09 34° SE 22:52:38 10° E night (unlit)
26 Oct - 00:52:15 10° WSW 01:02:18 77° SSE 01:21:18 10° E visible
26 Oct - 03:12:47 10° W 03:27:05 84° S 03:50:20 10° ESE visible
26 Oct - 05:35:04 10° WNW 05:53:28 62° SSW 06:16:22 10° SE visible
26 Oct - 08:01:05 10° W 08:18:37 30° SW 08:36:00 10° S daylight
26 Oct - 22:54:30 10° SW 23:01:44 45° SE 23:14:42 10° E night (unlit)
